Time,TemperatureF,DewpointF,PressureIn,WindDirection,WindDirectionDegrees,WindSpeedMPH,WindSpeedGustMPH,Humidity,HourlyPrecipIn,Conditions,Clouds,dailyrainin,SoftwareType,DateUTC
2015-01-26 00:22:00,24.0,23.0,-100.00,NNW,330,11.0,18.0,92,1.10,,,-99.99,,2015-01-26 05:22:00,
2015-01-26 00:23:00,25.0,23.0,-100.00,NW,325,11.0,19.0,92,0.55,,,-99.99,,2015-01-26 05:23:00,
2015-01-26 00:52:00,24.0,23.0,-100.00,NNW,330,11.0,18.0,92,1.10,,,-99.99,,2015-01-26 05:52:00,
2015-01-26 01:03:00,24.0,23.0,-100.00,NNW,330,11.0,18.0,92,1.10,,,-99.99,,2015-01-26 06:03:00,
2015-01-26 01:12:00,24.0,23.0,-100.00,NNW,330,11.0,18.0,92,1.10,,,-99.99,,2015-01-26 06:12:00,
2015-01-26 03:52:00,21.0,19.0,-100.00,NW,310,14.0,22.0,91,0.00,,,-99.99,,2015-01-26 08:52:00,
2015-01-26 04:22:00,21.0,19.0,-100.00,NW,310,15.0,24.0,90,0.00,,,-99.99,,2015-01-26 09:22:00,
2015-01-26 04:54:00,21.0,19.0,-100.00,NW,305,18.0,22.0,90,0.00,,,-99.99,,2015-01-26 09:54:00,
2015-01-26 05:24:00,21.0,19.0,-100.00,NW,310,18.0,23.0,90,0.00,,,-99.99,,2015-01-26 10:24:00,
2015-01-26 05:54:00,21.0,18.0,-100.00,WNW,295,17.0,22.0,89,0.55,,,-99.99,,2015-01-26 10:54:00,
2015-01-26 06:23:00,20.0,18.0,-100.00,WNW,290,18.0,23.0,89,0.00,,,-99.99,,2015-01-26 11:23:00,
2015-01-26 06:52:00,20.0,18.0,-100.00,WNW,300,15.0,19.0,89,0.00,,,-99.99,,2015-01-26 11:52:00,
2015-01-26 07:22:00,21.0,18.0,-100.00,WNW,300,14.0,20.0,88,0.00,,,-99.99,,2015-01-26 12:22:00,
2015-01-26 07:52:00,20.0,17.0,-100.00,WNW,295,17.0,20.0,88,0.00,,,-99.99,,2015-01-26 12:52:00,
2015-01-26 08:22:00,20.0,17.0,-100.00,West,280,12.0,17.0,87,0.00,,,-99.99,,2015-01-26 13:22:00,
2015-01-26 08:52:00,18.0,15.0,-100.00,West,270,9.0,16.0,87,0.00,,,-99.99,,2015-01-26 13:52:00,
2015-01-26 09:22:00,17.0,14.0,-100.00,West,280,11.0,16.0,87,0.00,,,-99.99,,2015-01-26 14:22:00,
2015-01-26 09:52:00,17.0,14.0,-100.00,West,270,12.0,16.0,85,0.00,,,-99.99,,2015-01-26 14:52:00,
2015-01-26 10:22:00,19.0,15.0,-100.00,West,265,11.0,16.0,83,0.00,,,-99.99,,2015-01-26 15:22:00,
2015-01-26 10:53:00,19.0,15.0,-100.00,West,265,12.0,21.0,81,0.00,,,-99.99,,2015-01-26 15:53:00,
2015-01-26 11:24:00,20.0,15.0,-100.00,West,260,13.0,17.0,80,0.00,,,-99.99,,2015-01-26 16:24:00,
2015-01-26 11:55:00,19.0,14.0,-100.00,West,275,12.0,16.0,79,0.00,,,-99.99,,2015-01-26 16:55:00,